Location: Dumpton Point
(51.3500°N, 1.4433°E)
Time: 06:58:34
(UTC+00:00)

Tiros 1 despin weight - All Passes

Search period start: 20 April 2021 00:00
Search period end: 30 April 2021 00:00
Orbit: 593 x 641 km, 48.2° (Epoch: 19 April)

Date Brightness Start Highest point End Pass type
(mag) Time Alt. Az. Time Alt. Az. Time Alt. Az.
20 Apr - 05:27:24 10° SSW 05:31:22 29° SSE 05:35:17 10° E daylight
20 Apr - 07:07:59 10° WSW 07:12:26 55° S 07:16:50 10° E daylight
20 Apr - 08:49:19 10° W 08:53:43 51° SSW 08:58:02 10° ESE daylight
20 Apr - 10:31:05 10° W 10:34:40 24° SSW 10:38:11 10° SSE daylight
21 Apr - 04:04:04 10° S 04:06:43 15° SE 04:09:21 10° ESE visible
21 Apr - 05:43:11 10° SW 05:47:27 40° SSE 05:51:42 10° E daylight
21 Apr - 07:24:12 10° WSW 07:28:41 59° S 07:33:06 10° E daylight
21 Apr - 09:05:39 10° W 09:09:53 40° SSW 09:14:03 10° SE daylight
21 Apr - 10:48:01 10° WSW 10:50:36 15° SW 10:53:10 10° S daylight
22 Apr - 04:19:01 10° SSW 04:22:40 23° SSE 04:26:18 10° E daylight
22 Apr - 05:59:12 10° WSW 06:03:38 50° SSE 06:08:02 10° E daylight
22 Apr - 07:40:27 10° W 07:44:55 56° S 07:49:18 10° ESE daylight
22 Apr - 09:22:04 10° W 09:25:59 29° SSW 09:29:51 10° SSE daylight
23 Apr - 02:56:45 10° SSE 02:58:07 11° SE 02:59:29 10° ESE visible
23 Apr - 04:34:34 10° SW 04:38:43 33° SSE 04:42:49 10° E daylight
23 Apr - 06:15:21 10° WSW 06:19:52 57° S 06:24:18 10° E daylight
23 Apr - 07:56:45 10° W 08:01:07 47° SSW 08:05:25 10° ESE daylight
23 Apr - 09:38:42 10° W 09:41:59 20° SW 09:45:14 10° SSE daylight
24 Apr - 03:10:49 10° S 03:14:00 18° SE 03:17:10 10° E visible
24 Apr - 04:50:27 10° SW 04:54:51 44° SSE 04:59:11 10° E daylight
24 Apr - 06:31:35 10° W 06:36:06 58° S 06:40:32 10° ESE daylight
24 Apr - 08:13:06 10° W 08:17:16 36° SSW 08:21:22 10° SE daylight
24 Apr - 09:56:00 10° WSW 09:57:53 12° SW 09:59:45 10° SSW daylight
25 Apr - 03:26:04 10° SSW 03:29:59 27° SSE 03:33:53 10° E visible
25 Apr - 05:06:32 10° WSW 05:11:03 54° S 05:15:28 10° E daylight
25 Apr - 06:47:52 10° W 06:52:19 53° S 06:56:43 10° ESE daylight
25 Apr - 08:29:34 10° W 08:33:20 26° SSW 08:37:01 10° SSE daylight
26 Apr - 02:02:57 10° S 02:05:22 14° SE 02:07:46 10° ESE visible
26 Apr - 03:41:47 10° SW 03:46:05 38° SSE 03:50:19 10° E visible
26 Apr - 05:22:44 10° WSW 05:27:16 59° S 05:31:45 10° E daylight
26 Apr - 07:04:10 10° W 07:08:30 43° SSW 07:12:46 10° SE daylight
26 Apr - 08:46:22 10° WSW 08:49:17 17° SW 08:52:10 10° S daylight
27 Apr - 02:17:43 10° SSW 02:21:17 22° SSE 02:24:50 10° E visible
27 Apr - 03:57:45 10° WSW 04:02:13 49° SSE 04:06:39 10° E visible
27 Apr - 05:38:59 10° W 05:43:31 57° S 05:47:58 10° ESE daylight
27 Apr - 07:20:34 10° W 07:24:37 32° SSW 07:28:37 10° SE daylight
28 Apr - 00:56:19 10° SE 00:56:46 10° SE 00:57:13 10° SE visible
28 Apr - 02:33:11 10° SW 02:37:19 32° SSE 02:41:24 10° E visible
28 Apr - 04:13:53 10° WSW 04:18:26 57° S 04:22:56 10° E daylight
28 Apr - 05:55:16 10° W 05:59:43 49° SSW 06:04:06 10° ESE daylight
28 Apr - 07:37:07 10° W 07:40:38 22° SSW 07:44:05 10° SSE daylight
29 Apr - 01:09:36 10° S 01:12:37 17° SE 01:15:38 10° ESE visible
29 Apr - 02:49:01 10° SW 02:53:26 43° SSE 02:57:47 10° E visible
29 Apr - 04:30:07 10° W 04:34:40 59° S 04:39:10 10° ESE daylight
29 Apr - 06:11:36 10° W 06:15:52 38° SSW 06:20:05 10° SE daylight
29 Apr - 07:54:11 10° WSW 07:56:33 14° SW 07:58:53 10° S daylight
